This is the latest recevied weather packets stored in our database for station/object PI8ANH-13. If no packets are shown the sender has not sent any weather packets the latest 1 day(s).
| Time | Temp. | Humidity | Pressure | Rain* | Wind** | Luminosity | Snow |
|---|---|---|---|---|---|---|---|
| 1778013897 | 10° C | 82% | 1009 hPa | - | 5.81 m/s, 10° | - | - |
| 1778012997 | 10° C | 82% | 1009 hPa | - | 5.36 m/s, 10° | - | - |
| 1778012097 | 10° C | 82% | 1009 hPa | - | 5.36 m/s, 10° | - | - |
| 1778011197 | 10° C | 82% | 1009 hPa | - | 5.36 m/s, 10° | - | - |
| 1778010298 | 10° C | 82% | 1009 hPa | - | 5.36 m/s, 10° | - | - |
| 1778009398 | 11.11° C | 76% | 1009 hPa | - | 3.58 m/s, 10° | - | - |
| 1778008497 | 11.11° C | 76% | 1009 hPa | - | 3.58 m/s, 10° | - | - |
| 1778007597 | 11.11° C | 82% | 1009 hPa | - | 4.02 m/s, 10° | - | - |
| 1778006697 | 11.11° C | 82% | 1009 hPa | - | 4.02 m/s, 10° | - | - |
| 1778005797 | 11.11° C | 82% | 1009 hPa | - | 5.36 m/s, 20° | - | - |
| 1778004899 | 11.11° C | 82% | 1009 hPa | - | 5.36 m/s, 20° | - | - |
| 1778003997 | 11.11° C | 82% | 1009 hPa | - | 5.81 m/s, 10° | - | - |
| 1778003097 | 11.11° C | 82% | 1009 hPa | - | 5.81 m/s, 10° | - | - |
| 1778002197 | 11.11° C | 76% | 1009 hPa | - | 5.81 m/s, 20° | - | - |
| 1778001297 | 11.11° C | 76% | 1009 hPa | - | 5.81 m/s, 20° | - | - |
| 1778000397 | 12.22° C | 77% | 1009 hPa | - | 5.81 m/s, 10° | - | - |
| 1777999497 | 12.22° C | 77% | 1009 hPa | - | 5.81 m/s, 10° | - | - |
| 1777998597 | 12.22° C | 77% | 1009 hPa | - | 5.36 m/s, 360° | - | - |
| 1777997697 | 12.22° C | 77% | 1009 hPa | - | 5.36 m/s, 360° | - | - |
| 1777996797 | 11.11° C | 82% | 1010 hPa | - | 4.02 m/s, 20° | - | - |
| 1777995897 | 11.11° C | 82% | 1010 hPa | - | 4.02 m/s, 20° | - | - |
| 1777994997 | 12.22° C | 77% | 1010 hPa | - | 4.02 m/s, 20° | - | - |
| 1777994097 | 12.22° C | 77% | 1010 hPa | - | 4.02 m/s, 20° | - | - |
| 1777993197 | 11.11° C | 82% | 1010 hPa | - | 5.36 m/s, 10° | - | - |
| 1777992297 | 11.11° C | 82% | 1010 hPa | - | 5.36 m/s, 10° | - | - |
* Rain since midnight (hover to see other rain measurements)
** Current wind speed in m/s (hover to see current wind gust speed)